Etusivu
METAR-TAF:

METAR-TAF

Lentoasemat :

Litchfield Municipal Airport

Litchfield, Minnesota, Yhdysvallat

Leveyspiiri: 45-05-50N, Pituuspiiri: 094-30-26W, korkeus merenpinnasta: 348 m

Tämänhetkinen sää

Tämä raportti tehtiin 24 minuuttia sitten, kello 10.15 UTC
Tuuli 10 kn idästä/kaakosta
Lämpötila -6°C
Kosteus 79%
Ilmanpaine 1011 hPa
Näkyvyys: 16.1 km

METAR: KLJF 171015Z AUTO 11010KT 10SM M06/M09 A2986 RMK AO2

Aika: 04:39 (10:39 UTC)


TAF: puuttuu

Säähavainnot ja -ennusteet yli 4000 lentoasemalta (METAR- ja TAF-raportit).

Käytössä olevat sääasemat on merkitty karttaan keltaisilla ja punaisilla pisteillä.

Aseta hiiri pisteen päälle nähdäksesi sääaseman nimen.

Klikkaa sitten nähdäksesi säähavainnot ja -ennusteet.

Kartan vaihtaminen: klikkaa mustalla rastilla varustettuja vihreitä pisteitä, niin voit zoomata sisään; viivalla varustettua vihreää pistettä, niin voit zoomata ulos tai vihreitä nuolia, niin pääset viereisille kartoille.


METAR-TAF: